www.pogodaiklimat.ru

Погода и климат >> Архив погоды >> Австралия >> Западная Австралия >> Остров Тевенард


ПОГОДА на Острове Тевенард

  • Прогноз погоды на Острове Тевенард
  • Монитор погоды на Острове Тевенард

АРХИВ ПОГОДЫ на Острове Тевенард

Время (UTC), дата Ветер
(напр.,м/с)
 
Видим.   Явления Облачность Т
(С)
Тd
(С)
f
(%)
Тe
(С)
Тes
(С)
Комфортность P
(гПа)
Po
(гПа)
Тmin
(С)
Tmax
(С)
R
(мм)
R24
(мм)
S
(см)
16 17.03 С 4 н/о н/о +29.7 +25.2 77 +43 +43 опасность
перегрева
1010.7 1010.1
19 17.03 СЗ 4 н/о н/о +28.8 +25.6 83 +43 +43 опасность
перегрева
1009.4 1008.8
22 17.03 СЗ 1 н/о н/о +27.0 +26.8 99 +42 +42 опасность
перегрева
1009.5 1008.9
01 18.03 С 5 н/о н/о +31.3 +24.9 69 +45 +45 опасность
перегрева
1010.7 1010.1 +27.1
04 18.03 С 4 н/о н/о +33.1 +25.9 66 +49 +49 опасность
перегрева
1009.3 1008.7
07 18.03 СЗ 5 н/о н/о +31.9 +24.5 65 +45 +45 опасность
перегрева
1007.2 1006.6
10 18.03 З 5 н/о н/о +30.1 +26.7 82 +47 +47 опасность
перегрева
1007.8 1007.2
13 18.03 З 6 н/о н/о +28.1 +27.6 97 +45 +45 опасность
перегрева
1009.9 1009.3 +33.4
16 18.03 ЮЗ 7 н/о н/о +28.6 +25.4 83 +42 +42 опасность
перегрева
1009.5 1008.9
19 18.03 ЮЗ 6 н/о н/о +28.4 +24.4 79 +40 +40 очень
душно
1008.3 1007.7
22 18.03 ЮЗ 7 н/о н/о +27.2 +26.3 95 +41 +41 опасность
перегрева
1008.3 1007.7
01 19.03 ЮЗ 7 н/о н/о +28.6 +23.5 74 +39 +39 очень
душно
1010.0 1009.4 +27.0
04 19.03 ЮЗ 6 н/о н/о +32.1 +23.6 61 +43 +43 опасность
перегрева
1008.7 1008.1
07 19.03 З 8 н/о н/о +33.2 +23.8 58 +45 +45 опасность
перегрева
1006.4 1005.8
10 19.03 З 7 н/о н/о +31.2 +25.5 72 +46 +46 опасность
перегрева
1006.0 1005.4
13 19.03 ЮЗ 8 н/о н/о +29.8 +26.8 84 +46 +46 опасность
перегрева
1008.0 1007.4 +34.1
16 19.03 ЮЗ 8 н/о н/о +28.7 +23.6 74 +39 +39 очень
душно
1008.0 1007.4
19 19.03 Ю 8 н/о н/о +28.1 +21.6 68 +36 +36 очень
душно
1007.0 1006.4
22 19.03 Ю 8 н/о н/о +27.0 +22.2 75 +35 +35 очень
душно
1007.4 1006.8
01 20.03 Ю 7 н/о н/о +29.9 +21.6 61 +38 +38 очень
душно
1008.4 1007.8 +26.8
04 20.03 ЮЗ 5 н/о н/о +33.8 +24.1 57 +46 +46 опасность
перегрева
1007.6 1007.0
07 20.03 З 7 н/о н/о +34.4 +24.0 55 +46 +46 опасность
перегрева
1005.2 1004.6
10 20.03 З 6 н/о н/о +31.7 +26.5 74 +48 +48 опасность
перегрева
1004.9 1004.3
13 20.03 ЮЗ 9 н/о н/о +30.1 +26.0 79 +45 +45 опасность
перегрева
1007.2 1006.6 +35.2
16 20.03 ЮЗ 8 н/о н/о +29.8 +24.9 75 +43 +43 опасность
перегрева
1006.4 1005.8
19 20.03 Ю 6 н/о н/о +29.1 +21.3 63 +37 +37 очень
душно
1005.2 1004.6
22 20.03 Ю 8 н/о н/о +27.9 +21.2 67 +35 +35 очень
душно
1006.4 1005.8
01 21.03 Ю 8 н/о н/о +30.2 +21.0 58 +38 +38 очень
душно
1007.5 1006.9 +27.4
04 21.03 Ю 4 н/о н/о +34.0 +22.7 52 +44 +44 опасность
перегрева
1006.2 1005.6
07 21.03 З 7 н/о н/о +34.0 +24.6 58 +47 +47 опасность
перегрева
1003.0 1002.4
10 21.03 З 4 н/о н/о +31.8 +24.1 64 +44 +44 опасность
перегрева
1004.5 1003.9
13 21.03 С 4 н/о н/о +28.7 +25.3 82 +42 +42 опасность
перегрева
1006.5 1005.9 +35.5
16 21.03 ЮЗ 6 н/о н/о +29.4 +26.0 82 +44 +44 опасность
перегрева
1005.9 1005.3
22 21.03 Ю 7 н/о н/о +28.6 +22.8 71 +38 +38 очень
душно
1005.1 1004.5
01 22.03 Ю 7 н/о н/о +31.6 +23.2 61 +42 +42 опасность
перегрева
1005.4 1004.8 +28.1
04 22.03 В 4 н/о н/о +35.1 +22.4 48 +44 +44 опасность
перегрева
1004.4 1003.8
07 22.03 С 6 н/о н/о +32.4 +25.5 67 +47 +47 опасность
перегрева
1003.1 1002.5
10 22.03 Ю 6 н/о н/о +30.5 +25.1 73 +44 +44 опасность
перегрева
1003.6 1003.0
13 22.03 Ю 6 н/о н/о +29.5 +27.9 91 +49 +49 опасность
перегрева
1005.4 1004.8 +37.2
16 22.03 Ю 6 н/о н/о +29.5 +27.9 91 +49 +49 опасность
перегрева
1004.6 1004.0
19 22.03 Ю 9 н/о н/о +29.4 +27.0 87 +46 +46 опасность
перегрева
1002.4 1001.8
22 22.03 ЮВ 8 н/о н/о +29.7 +24.6 74 +42 +42 опасность
перегрева
1002.5 1001.9
01 23.03 ЮВ 6 н/о н/о +31.8 +24.4 65 +44 +44 опасность
перегрева
1003.4 1002.8 +28.8
04 23.03 В 7 н/о н/о +35.0 +22.0 47 +44 +44 опасность
перегрева
1002.1 1001.5
07 23.03 В 7 н/о н/о +36.0 +22.5 46 +45 +45 опасность
перегрева
999.9 999.3
10 23.03 В 8 н/о н/о +33.5 +23.2 55 +44 +44 опасность
перегрева
1000.3 999.7
13 23.03 З 5 н/о н/о +30.5 +27.9 86 +50 +50 опасность
перегрева
1002.2 1001.6 +36.1
16 23.03 ЮВ 7 н/о н/о +32.6 +21.1 51 +40 +40 очень
душно
1001.6 1001.0
19 23.03 Ю 7 н/о н/о +32.0 +21.5 54 +40 +40 очень
душно
1000.5 999.9
22 23.03 Ю 7 н/о н/о +31.1 +21.0 55 +39 +39 очень
душно
1001.2 1000.6
01 24.03 Ю 8 н/о н/о +32.0 +20.3 50 +39 +39 очень
душно
1002.2 1001.6 +30.4
04 24.03 Ю 8 н/о н/о +33.7 +20.5 46 +40 +40 очень
душно
1001.7 1001.1
07 24.03 ЮВ 10 н/о н/о +34.8 +20.4 43 +41 +41 опасность
перегрева
1000.1 999.5
10 24.03 ЮВ 7 н/о н/о +33.2 +21.4 50 +41 +41 опасность
перегрева
1001.2 1000.6
13 24.03 В 4 н/о н/о +31.5 +23.1 61 +42 +42 опасность
перегрева
1003.3 1002.7 +35.3
16 24.03 ЮВ 11 н/о н/о +31.4 +19.7 50 +37 +37 очень
душно
1003.7 1003.1

 

Местоположение метеостанции Остров Тевенард (Западная Австралия, Австралия): широта -21.45 долгота 115.02 высота над уровнем моря 6 м.

В архиве по умолчанию представлена погода на Острове Тевенард за последнюю неделю. Архивные данные за месяц целиком и за предыдущие месяцы, начиная с января 2011 года, Вы можете получить, выбрав интересующий диапазон дат из раскрывающегося списка и нажав кнопку "Ввод!".


*Определитесь, кто Вы:
робот инопланетянин человек

Внимание! Время в таблицах - всемирное. Для получения местного времени необходимо прибавить поправку, которая равна 8 ч.

Смотрите также архив погоды в соседних городах и на ближайших метеорологических станциях:

Погода в Онслоу (Западная Австралия, Австралия) (27 км)
Погода в Барроу-Айленд (Западная Австралия, Австралия) (75 км)
Погода в Марди (Западная Австралия, Австралия) (103 км)
Погода на Острове Варанас (Западная Австралия, Австралия) (106 км)
Погода в Лермонте (Западная Австралия, Австралия) (130 км)
Погода в Каррате (Западная Австралия, Австралия) (199 км)
Погода в Роборне (Западная Австралия, Австралия) (234 км)
Погода в Параберду (Западная Австралия, Австралия) (340 км)
Погода в Порт-Хедленде (Западная Австралия, Австралия) (394 км)
Погода в Карнарвоне (Западная Австралия, Австралия) (406 км)

Пояснения к столбцам:

Ветер - указаны скорость ветра в м/с - средняя за 10 мин, порывы в срок и между сроками (в фигурных скобках) и направление, откуда дует ветер: С - северный, СВ - северо-восточный, В - восточный, ЮВ - юго-восточный, Ю - южный, ЮЗ - юго-западный, З - западный, СЗ - северо-западный.
Видимость - горизонтальная дальность видимости в метрах или километрах. При видимости от 1 до 10 км при отсутствии осадков обычно наблюдается дымка, при ухудшении видимости до 1 км и менее - туман. В сухую погоду видимость может ухудшаться дымом, пылью или мглою.
Явления - указаны атмосферные явления, наблюдавшиеся в срок или в последний час перед сроком; фигурными скобками обозначены явления, наблюдавшиеся между сроками (за 1-3 часа до срока); квадратными скобками обозначены град или гололедные отложения с указанием их диаметра в мм.
Облачность - указаны через наклонную черту общая и нижняя облачность в баллах и высота нижней границы облаков в метрах; квадратными скобками обозначены формы облаков: Ci - перистые, Cs - перисто-слоистые, Cc - перисто-кучевые, Ac - высококучевые, As - высокослоистые, Sc - слоисто-кучевые, Ns - слоисто-дождевые, Cu - кучевые, Cb - кучево-дождевые. Подробнее классификацию облаков см. в Атласе облаков (PDF).
T - Температура воздуха - температура, измеренная на высоте 2 м над землей.
Td - Температура точки росы - температура, при понижении до которой содержащийся в воздухе водяной пар достигнет насыщения.
f - Относительная влажность воздуха - влажноcть воздуха, измеренная на высоте 2 м над землей.
Te - Эффективная температура - температура, которую ощущает одетый по сезону человек в тени. Характеристика душности погоды. При расчете учитывается влияние влажности воздуха и скорости ветра на теплоощущения человека.
Tes - Эффективная температура на солнце - температура, которую ощущает человек, с поправкой на солнечный нагрев. Характеристика знойности погоды. Зависит от высоты солнца над горизонтом, облачности и скорости ветра. Ночью, в пасмурную погоду, а также при ветре 12 м/с и более поправка равна нулю.
P - Атмосферное давление - приведенное к уровню моря атмосферное давление.
Po - Атмосферное давление - измеренное на уровне метеостанции атмосферное давление.
Tmin - Минимальная температура - минимум температуры воздуха на высоте 2 м над землей.
Tmax - Максимальная температура - максимум температуры воздуха на высоте 2 м над землей.
R - Количество осадков - Количество выпавших осадков за период времени, мм. При наведении курсора мыши на число - период времени, за который выпало указанное количество осадков.
R24 - Количество осадков - Количество выпавших осадков за 24 часа, мм.
S - Снежный покров - Высота снежного покрова, см. При наведении курсора мыши на число - состояние снежного покрова и степень покрытия местности в баллах.